| time (UTC) | temp F | wind direction | speed MPH | gust MPH | rain 1hr in | rain 24hr in | rain mn in | humidity % | barometer mb |
| 20260831112008 | 87 | 52 | 12.0 | 19.0 | 0.00 | 0.00 | 0.00 | 58 | 1017.9 |
| 20260831111007 | 87 | 74 | 10.0 | 16.0 | 0.00 | 0.00 | 0.00 | 61 | 1018.0 |
| 20260831110009 | 87 | 61 | 13.0 | 21.0 | 0.00 | 0.00 | 0.00 | 62 | 1018.1 |
| 20260831105019 | 87 | 74 | 10.0 | 18.0 | 0.00 | 0.00 | 0.00 | 63 | 1018.2 |
| 20260831104005 | 86 | 48 | 10.0 | 16.0 | 0.00 | 0.00 | 0.00 | 63 | 1018.2 |
| 20260831103005 | 87 | 65 | 13.0 | 19.0 | 0.00 | 0.00 | 0.00 | 61 | 1018.2 |
| 20260831102003 | 87 | 69 | 12.0 | 19.0 | 0.00 | 0.00 | 0.00 | 60 | 1018.1 |
| 20260831101004 | 87 | 67 | 11.0 | 19.0 | 0.00 | 0.00 | 0.00 | 60 | 1018.0 |
| 20260831100005 | 87 | 66 | 9.0 | 15.0 | 0.00 | 0.00 | 0.00 | 59 | 1018.0 |
| 20260831093005 | 87 | 70 | 6.0 | 10.0 | 0.00 | 0.00 | 0.00 | 58 | 1017.8 |
| 20260831091005 | 86 | 38 | 9.0 | 13.0 | 0.00 | 0.00 | 0.00 | 58 | 1017.7 |
| 20260831090005 | 86 | 57 | 7.0 | 10.0 | 0.00 | 0.00 | 0.00 | 58 | 1017.5 |
| 20260831084005 | 86 | 24 | 4.0 | 7.0 | 0.00 | 0.00 | 0.00 | 56 | 1017.4 |
| 20260831083005 | 85 | 22 | 3.0 | 6.0 | 0.00 | 0.00 | 0.00 | 56 | 1017.4 |
| 20260831082004 | 84 | 350 | 2.0 | 3.0 | 0.00 | 0.00 | 0.00 | 58 | 1017.3 |
| 20260831081004 | 82 | 298 | 3.0 | 5.0 | 0.00 | 0.00 | 0.00 | 61 | 1017.3 |
| 20260831080005 | 81 | 292 | 4.0 | 6.0 | 0.00 | 0.00 | 0.00 | 61 | 1017.2 |
| 20260831074005 | 78 | 283 | 4.0 | 6.0 | 0.00 | 0.00 | 0.00 | 61 | 1017.2 |
| 20260831073005 | 77 | 281 | 4.0 | 7.0 | 0.00 | 0.00 | 0.00 | 59 | 1017.2 |
| 20260831072004 | 77 | 280 | 3.0 | 5.0 | 0.00 | 0.00 | 0.00 | 58 | 1017.1 |
| 20260831071004 | 76 | 310 | 5.0 | 8.0 | 0.00 | 0.00 | 0.00 | 59 | 1017.0 |
| 20260831070007 | 75 | 310 | 4.0 | 7.0 | 0.00 | 0.00 | 0.00 | 61 | 1016.8 |
| 20260831065004 | 74 | 293 | 5.0 | 8.0 | 0.00 | 0.00 | 0.00 | 60 | 1016.8 |
| 20260831064005 | 74 | 307 | 5.0 | 7.0 | 0.00 | 0.00 | 0.00 | 60 | 1016.7 |
| 20260831062004 | 74 | 320 | 2.0 | 4.0 | 0.00 | 0.00 | 0.00 | 63 | 1016.4 |
| 20260831061004 | 73 | 324 | 1.0 | 2.0 | 0.00 | 0.00 | 0.00 | 66 | 1016.3 |
| 20260831060007 | 73 | 337 | 2.0 | 3.0 | 0.00 | 0.00 | 0.00 | 67 | 1016.2 |
| 20260831054008 | 72 | 329 | 1.0 | 3.0 | 0.00 | 0.00 | 0.00 | 68 | 1016.0 |
| 20260831052004 | 72 | 310 | 2.0 | 4.0 | 0.00 | 0.00 | 0.00 | 72 | 1015.9 |
| 20260831051004 | 72 | 338 | 3.0 | 5.0 | 0.00 | 0.00 | 0.00 | 72 | 1015.8 |
| 20260831050005 | 72 | 355 | 1.0 | 3.0 | 0.00 | 0.00 | 0.00 | 76 | 1015.7 |
| 20260831045004 | 72 | 356 | 2.0 | 3.0 | 0.00 | 0.00 | 0.00 | 77 | 1015.6 |
| 20260831044006 | 72 | 335 | 1.0 | 2.0 | 0.00 | 0.00 | 0.00 | 77 | 1015.6 |
| 20260831043006 | 73 | 312 | 3.0 | 4.0 | 0.00 | 0.00 | 0.00 | 77 | 1015.6 |
| 20260831042012 | 73 | 299 | 3.0 | 6.0 | 0.00 | 0.00 | 0.00 | 78 | 1015.5 |
| 20260831041006 | 73 | 310 | 5.0 | 7.0 | 0.00 | 0.00 | 0.00 | 79 | 1015.5 |
| 20260831040007 | 73 | 301 | 3.0 | 5.0 | 0.00 | 0.00 | 0.00 | 80 | 1015.4 |
| 20260831035005 | 73 | 295 | 4.0 | 6.0 | 0.00 | 0.00 | 0.00 | 79 | 1015.5 |
| 20260831034006 | 73 | 307 | 5.0 | 8.0 | 0.00 | 0.00 | 0.00 | 80 | 1015.5 |
| 20260831033004 | 73 | 306 | 5.0 | 8.0 | 0.00 | 0.00 | 0.00 | 82 | 1015.5 |
| 20260831032022 | 73 | 292 | 3.0 | 5.0 | 0.00 | 0.00 | 0.00 | 82 | 1015.5 |
| 20260831030006 | 73 | 292 | 3.0 | 4.0 | 0.00 | 0.00 | 0.00 | 82 | 1015.5 |
| 20260831025005 | 73 | 262 | 3.0 | 4.0 | 0.00 | 0.00 | 0.00 | 82 | 1015.6 |
| 20260831021005 | 74 | 281 | 4.0 | 7.0 | 0.00 | 0.00 | 0.00 | 81 | 1015.5 |
| 20260831020008 | 74 | 290 | 7.0 | 10.0 | 0.00 | 0.00 | 0.00 | 81 | 1015.5 |
| 20260831015005 | 75 | 292 | 4.0 | 6.0 | 0.00 | 0.00 | 0.00 | 80 | 1015.4 |
| 20260831014007 | 75 | 316 | 2.0 | 3.0 | 0.00 | 0.00 | 0.00 | 79 | 1015.4 |
| 20260831013005 | 76 | 322 | 3.0 | 6.0 | 0.00 | 0.00 | 0.00 | 78 | 1015.3 |
| 20260831012004 | 76 | 324 | 3.0 | 5.0 | 0.00 | 0.00 | 0.00 | 77 | 1015.4 |
| 20260831011003 | 76 | 314 | 3.0 | 5.0 | 0.00 | 0.00 | 0.00 | 77 | 1015.5 |
| 20260831010006 | 76 | 342 | 3.0 | 5.0 | 0.00 | 0.00 | 0.00 | 77 | 1015.6 |
| 20260831005006 | 76 | 341 | 3.0 | 6.0 | 0.00 | 0.00 | 0.00 | 76 | 1015.7 |
| 20260831003028 | 76 | 293 | 2.0 | 3.0 | 0.00 | 0.00 | 0.00 | 76 | 1015.7 |
| 20260831001004 | 77 | 329 | 3.0 | 6.0 | 0.00 | 0.00 | 0.00 | 76 | 1015.8 |
| 20260831000007 | 77 | 344 | 3.0 | 6.0 | 0.00 | 0.00 | 0.00 | 78 | 1015.7 |
| 20260830234006 | 77 | 354 | 3.0 | 6.0 | 0.00 | 0.00 | 0.00 | 81 | 1015.7 |
| 20260830233006 | 77 | 11 | 5.0 | 9.0 | 0.00 | 0.00 | 0.00 | 82 | 1015.7 |
| 20260830232003 | 77 | 5 | 4.0 | 7.0 | 0.00 | 0.00 | 0.00 | 83 | 1015.8 |
| 20260830231004 | 77 | 13 | 5.0 | 8.0 | 0.00 | 0.00 | 0.00 | 83 | 1015.8 |
| 20260830230005 | 78 | 4 | 6.0 | 9.0 | 0.00 | 0.00 | 0.00 | 84 | 1015.7 |
| 20260830225005 | 78 | 22 | 6.0 | 11.0 | 0.00 | 0.00 | 0.00 | 84 | 1015.6 |
| 20260830224005 | 78 | 12 | 5.0 | 9.0 | 0.00 | 0.00 | 0.00 | 83 | 1015.6 |
| 20260830223021 | 78 | 1 | 6.0 | 10.0 | 0.00 | 0.00 | 0.00 | 82 | 1015.7 |
| 20260830222004 | 78 | 4 | 5.0 | 8.0 | 0.00 | 0.00 | 0.00 | 82 | 1015.6 |
| 20260830221004 | 78 | 9 | 5.0 | 8.0 | 0.00 | 0.00 | 0.00 | 82 | 1015.7 |
| 20260830220008 | 78 | 20 | 6.0 | 11.0 | 0.00 | 0.00 | 0.00 | 82 | 1015.7 |
| 20260830214005 | 79 | 28 | 7.0 | 13.0 | 0.00 | 0.00 | 0.00 | 81 | 1015.4 |
| 20260830213005 | 79 | 41 | 7.0 | 11.0 | 0.00 | 0.00 | 0.00 | 81 | 1015.3 |
| 20260830211004 | 79 | 33 | 9.0 | 14.0 | 0.00 | 0.00 | 0.00 | 80 | 1015.2 |
| 20260830205008 | 79 | 27 | 8.0 | 12.0 | 0.00 | 0.00 | 0.00 | 81 | 1015.0 |
| 20260830204009 | 79 | 37 | 9.0 | 15.0 | 0.00 | 0.00 | 0.00 | 81 | 1015.0 |
| 20260830203006 | 79 | 20 | 9.0 | 16.0 | 0.00 | 0.00 | 0.00 | 81 | 1015.0 |
| 20260830202019 | 80 | 16 | 9.0 | 16.0 | 0.00 | 0.00 | 0.00 | 81 | 1014.9 |
| 20260830201005 | 80 | 15 | 9.0 | 16.0 | 0.00 | 0.00 | 0.00 | 81 | 1014.8 |
| 20260830200005 | 80 | 18 | 9.0 | 14.0 | 0.00 | 0.00 | 0.00 | 80 | 1014.7 |
| 20260830195008 | 80 | 17 | 9.0 | 15.0 | 0.00 | 0.00 | 0.00 | 78 | 1014.5 |
| 20260830193004 | 80 | 21 | 8.0 | 12.0 | 0.00 | 0.00 | 0.00 | 75 | 1014.2 |
| 20260830192005 | 80 | 20 | 8.0 | 13.0 | 0.00 | 0.00 | 0.00 | 75 | 1014.1 |
| 20260830191005 | 81 | 20 | 6.0 | 10.0 | 0.00 | 0.00 | 0.00 | 74 | 1014.0 |
| 20260830190008 | 81 | 23 | 7.0 | 12.0 | 0.00 | 0.00 | 0.00 | 74 | 1013.9 |
| 20260830184005 | 82 | 25 | 5.0 | 9.0 | 0.00 | 0.00 | 0.00 | 73 | 1013.6 |
| 20260830183009 | 82 | 30 | 7.0 | 11.0 | 0.00 | 0.00 | 0.00 | 72 | 1013.6 |
| 20260830182005 | 83 | 28 | 5.0 | 9.0 | 0.00 | 0.00 | 0.00 | 69 | 1013.6 |
| 20260830180006 | 84 | 40 | 7.0 | 11.0 | 0.00 | 0.00 | 0.00 | 65 | 1013.4 |
| 20260830175004 | 86 | 45 | 5.0 | 8.0 | 0.00 | 0.00 | 0.00 | 62 | 1013.5 |
| 20260830174004 | 86 | 47 | 4.0 | 7.0 | 0.00 | 0.00 | 0.00 | 56 | 1013.4 |
| 20260830173006 | 86 | 46 | 4.0 | 7.0 | 0.00 | 0.00 | 0.00 | 57 | 1013.5 |
| 20260830172005 | 86 | 72 | 3.0 | 6.0 | 0.00 | 0.00 | 0.00 | 58 | 1013.5 |
| 20260830170005 | 86 | 126 | 5.0 | 7.0 | 0.00 | 0.00 | 0.00 | 60 | 1013.5 |
| 20260830163007 | 87 | 87 | 6.0 | 10.0 | 0.00 | 0.00 | 0.00 | 56 | 1013.6 |
| 20260830162005 | 87 | 97 | 5.0 | 9.0 | 0.00 | 0.00 | 0.00 | 58 | 1013.6 |
| 20260830160005 | 87 | 94 | 7.0 | 11.0 | 0.00 | 0.00 | 0.00 | 60 | 1013.8 |
| 20260830154004 | 87 | 97 | 8.0 | 15.0 | 0.00 | 0.00 | 0.00 | 62 | 1013.8 |
| 20260830153006 | 86 | 98 | 8.0 | 13.0 | 0.00 | 0.00 | 0.00 | 61 | 1013.9 |
| 20260830152005 | 86 | 112 | 8.0 | 13.0 | 0.00 | 0.00 | 0.00 | 62 | 1014.0 |
| 20260830151005 | 87 | 88 | 7.0 | 12.0 | 0.00 | 0.00 | 0.00 | 61 | 1014.1 |
| 20260830150005 | 86 | 130 | 9.0 | 15.0 | 0.00 | 0.00 | 0.00 | 62 | 1014.2 |
| 20260830144005 | 87 | 89 | 9.0 | 14.0 | 0.00 | 0.00 | 0.00 | 60 | 1014.4 |
| 20260830143004 | 87 | 93 | 9.0 | 15.0 | 0.00 | 0.00 | 0.00 | 58 | 1014.5 |
| 20260830142005 | 86 | 128 | 10.0 | 16.0 | 0.00 | 0.00 | 0.00 | 59 | 1014.6 |
| 20260830140007 | 86 | 132 | 10.0 | 17.0 | 0.00 | 0.00 | 0.00 | 54 | 1014.7 |
| 20260830135006 | 86 | 120 | 10.0 | 15.0 | 0.00 | 0.00 | 0.00 | 52 | 1014.9 |
| 20260830134006 | 85 | 131 | 10.0 | 16.0 | 0.00 | 0.00 | 0.00 | 52 | 1015.0 |
| 20260830133004 | 85 | 119 | 9.0 | 15.0 | 0.00 | 0.00 | 0.00 | 50 | 1015.1 |
| 20260830132004 | 85 | 128 | 12.0 | 17.0 | 0.00 | 0.00 | 0.00 | 51 | 1015.2 |
| 20260830131005 | 87 | 124 | 9.0 | 15.0 | 0.00 | 0.00 | 0.00 | 46 | 1015.3 |
| 20260830130005 | 86 | 127 | 11.0 | 18.0 | 0.00 | 0.00 | 0.00 | 47 | 1015.4 |
| 20260830125005 | 87 | 120 | 11.0 | 16.0 | 0.00 | 0.00 | 0.00 | 42 | 1015.5 |
| 20260830123005 | 87 | 102 | 8.0 | 13.0 | 0.00 | 0.00 | 0.00 | 41 | 1015.7 |
| 20260830122004 | 87 | 125 | 10.0 | 15.0 | 0.00 | 0.00 | 0.00 | 41 | 1015.8 |
| 20260830120008 | 86 | 128 | 8.0 | 14.0 | 0.00 | 0.00 | 0.00 | 39 | 1015.9 |
| 20260830115004 | 87 | 100 | 7.0 | 10.0 | 0.00 | 0.00 | 0.00 | 37 | 1015.9 |
| 20260830114006 | 87 | 116 | 7.0 | 11.0 | 0.00 | 0.00 | 0.00 | 37 | 1016.0 |
| 20260830113005 | 87 | 112 | 7.0 | 11.0 | 0.00 | 0.00 | 0.00 | 36 | 1016.1 |